{"data":{"norad_id":48327,"intl_designator":"2021-036BD","name":"STARLINK-2502","alt_names":[],"object_type":"PAYLOAD","status":"ACTIVE","operator":null,"country":"US","launch_date":"2021-04-29","launch_site_code":"AFETR","launch_vehicle":null,"mission":null,"orbit_class":"UNKNOWN","rcs_meters":null,"size_class":null,"mass_kg":null,"dimensions":null,"purposes":["comms"],"wikipedia_slug":null,"has_3d_model":false,"image_url":null,"decayed_at":null,"tle_current":{"epoch":"2026-05-25T03:29:32.108928Z","epoch_age_seconds":56331,"freshness":"FRESH","line1":"1 48327U 21036BD  26145.14551052 -.00000476  00000+0 -35859-5 0  9990","line2":"2 48327  53.1614 105.5065 0001387 102.9625 257.1532 15.31693363279757","mean_motion":15.31693363,"eccentricity":0.0001387,"inclination_deg":53.1614,"raan_deg":105.5065,"arg_perigee_deg":102.9625,"mean_anomaly_deg":257.1532,"bstar":-3.5859e-6,"rev_number":27975,"period_min":94.01359533083,"perigee_km":469.80983786536,"apogee_km":471.70972183209,"semimajor_km":6848.8967798487,"source":"CELESTRAK","updated_at":"2026-05-25T13:38:16.682559Z"}}}